Location: Hradec Kralove
(50.2170°N, 15.8330°E)
Time: 11:32:33
(UTC+01:00)

Vanguard 1 Rocket - Visible Passes

Search period start: 31 January 2023 00:00
Search period end: 10 February 2023 00:00
Orbit: 651 x 4225 km, 34.3° (Epoch: 30 January)

Date Brightness Start Highest point End Pass type
(mag) Time Alt. Az. Time Alt. Az. Time Alt. Az.
31 Jan 11.5 17:37:13 10° W 17:55:41 41° SSW 18:18:17 10° SE visible
31 Jan 11.8 20:08:32 10° W 20:23:42 21° SW 20:39:09 10° S visible
01 Feb 11.8 18:53:16 10° W 19:10:41 29° SW 19:30:04 10° SSE visible
02 Feb 11.6 17:39:49 10° W 17:57:13 36° SSW 18:18:55 10° SSE visible
02 Feb 12.0 20:12:56 10° W 20:24:49 16° SW 20:37:10 10° SSW visible
03 Feb 11.9 18:56:27 10° W 19:12:00 24° SW 19:29:38 10° S visible
04 Feb 11.8 17:42:37 10° W 17:58:45 32° SSW 18:19:10 10° SSE visible
04 Feb 12.2 20:20:07 10° WSW 20:26:00 11° SW 20:32:04 10° SW visible
05 Feb 12.0 19:00:16 10° W 19:13:23 19° SW 19:28:17 10° S visible
06 Feb 12.0 17:45:43 10° W 18:00:20 27° SW 18:18:53 10° S visible
07 Feb 12.2 19:05:22 10° WSW 19:14:49 14° SW 19:25:18 10° SSW visible
08 Feb 12.1 17:49:15 10° WSW 18:01:58 21° SW 18:17:52 10° S visible
